Weather History for Covington, KY

Change the Weather History Date:

Wednesday, June 19, 2013

  Actual Average Record
Temperature  
Mean Temperature 72 °F 73 °F  
Max Temperature 82 °F 83 °F 97 °F (1933)
Min Temperature 61 °F 63 °F 46 °F (1965)
Degree Days  
Heating Degree Days 0 0  
Month to date heating degree days 1 12  
Since 1 June heating degree days 1 12  
Since 1 July heating degree days 4981 4972  
Cooling Degree Days 7 8  
Month to date cooling degree days 124 122  
Year to date cooling degree days 263 216  
Since 1 June cooling degree days 124 122  
Growing Degree Days 22 (Base 50)    
Moisture  
Dew Point 55 °F    
Average Humidity 61    
Maximum Humidity 87    
Minimum Humidity 35    
Precipitation  
Precipitation 0.00 in 0.13 in 2.60 in (1946)
Month to date precipitation 1.82 2.72  
Year to date precipitation 19.70 21.31  
Snow  
Snow 0.00 in 0.00 in 0.00 in ()
Month to date snowfall 0.0 0.0  
Since 1 June snowfall 0.0 0.0  
Since 1 July snowfall 25.2 22.1  
Snow Depth 0.00 in    
Sea Level Pressure  
Sea Level Pressure 30.05 in    
Wind  
Wind Speed 6 mph (ENE)    
Max Wind Speed 13 mph    
Max Gust Speed 22 mph    
Visibility 10 miles    
Events      
T = Trace of Precipitation, MM = Missing Value Source: NWS Daily Summary

Daily Weather History Graph

Daily Weather History Graph

Search for Another Location

Airport:

Trip Planner

Search our weather history database for the weather conditions in past years. The results will help you decide how hot, cold, wet, or windy it might be!

Date:

Astronomy

Jun. 19, 2013 Rise Set
Actual Time 6:12 AM EDT 9:07 PM EDT
Civil Twilight 5:40 AM EDT 9:39 PM EDT
Nautical Twilight 4:59 AM EDT 10:20 PM EDT
Astronomical Twilight 4:13 AM EDT 11:07 PM EDT
Moon 5:00 PM EDT (6/19) 2:55 AM EDT (6/19)
Length of Visible Light 15h 59m
Length of Day
14h 54m
Waxing Gibbous, 80% of the Moon is Illuminated
Jun 19
Waxing Gibbous
Jun 23
Full
Jun 30
Last Quarter
Jul 8
New
Jul 15
First Quarter

Hourly Weather History & Observations

Time (EDT) Temp. Dew Point Humidity Pressure Visibility Wind Dir Wind Speed Gust Speed Precip Events Conditions
12:52 AM 66.9 °F 63.0 °F 87% 29.99 in 10.0 mi East 5.8 mph - N/A   Partly Cloudy
1:52 AM 66.9 °F 60.1 °F 79% 29.98 in 10.0 mi NE 5.8 mph - N/A   Partly Cloudy
2:52 AM 64.9 °F 57.9 °F 78% 29.99 in 10.0 mi ENE 10.4 mph - N/A   Partly Cloudy
3:52 AM 64.0 °F 57.0 °F 78% 30.00 in 10.0 mi NE 10.4 mph - N/A   Clear
4:52 AM 63.0 °F 55.9 °F 78% 30.00 in 10.0 mi ENE 9.2 mph - N/A   Clear
5:52 AM 62.1 °F 55.0 °F 78% 30.01 in 10.0 mi NE 10.4 mph - N/A   Clear
6:52 AM 62.1 °F 55.0 °F 78% 30.05 in 10.0 mi NNE 8.1 mph - N/A   Clear
7:52 AM 64.0 °F 55.0 °F 73% 30.06 in 10.0 mi NE 8.1 mph - N/A   Clear
8:52 AM 66.0 °F 53.1 °F 63% 30.08 in 10.0 mi ENE 9.2 mph - N/A   Clear
9:52 AM 69.1 °F 53.1 °F 57% 30.09 in 10.0 mi NE 5.8 mph - N/A   Clear
10:52 AM 72.0 °F 53.1 °F 51% 30.09 in 10.0 mi East 5.8 mph - N/A   Clear
11:52 AM 75.0 °F 54.0 °F 48% 30.09 in 10.0 mi ENE 5.8 mph - N/A   Clear
12:52 PM 75.9 °F 54.0 °F 46% 30.09 in 10.0 mi NNE 9.2 mph - N/A   Clear
1:52 PM 79.0 °F 54.0 °F 42% 30.08 in 10.0 mi Variable 6.9 mph - N/A   Partly Cloudy
2:52 PM 79.0 °F 52.0 °F 39% 30.07 in 10.0 mi Variable 5.8 mph - N/A   Partly Cloudy
3:52 PM 81.0 °F 52.0 °F 36% 30.06 in 10.0 mi NNE 4.6 mph - N/A   Partly Cloudy
4:52 PM 81.0 °F 50.0 °F 34% 30.06 in 10.0 mi Calm Calm - N/A   Partly Cloudy
6:52 PM 79.0 °F 52.0 °F 39% 30.05 in 10.0 mi ENE 3.5 mph - N/A   Clear
7:52 PM 79.0 °F 52.0 °F 39% 30.06 in 10.0 mi Calm Calm - N/A   Partly Cloudy
8:52 PM 75.0 °F 55.0 °F 50% 30.06 in 10.0 mi SE 3.5 mph - N/A   Partly Cloudy
9:52 PM 71.1 °F 54.0 °F 55% 30.08 in 10.0 mi Calm Calm - N/A   Clear
10:52 PM 71.1 °F 55.9 °F 59% 30.11 in 10.0 mi East 4.6 mph - N/A   Clear
11:52 PM 69.1 °F 55.0 °F 61% 30.11 in 10.0 mi East 4.6 mph - N/A   Clear